Retour au catalogue

CZ-6A DEB

ActifPO
NORAD 54892·DEBRIS·🇨🇳 China

Lancé Nov 11, 2022 depuis Taiyuan Satellite Launch Center

Loading…

Prochains Passages (prochaines 24 heures)

TLE

FraisSource: Space-Track

Époque: Sep 13, 2026, 17:45 UTC

1 54892U 22151QD  26256.73974471  .00006969  00000-0  10810-2 0  9994
2 54892  98.6146 325.8910 0065339  13.2195 347.0703 14.72041508200502

Suivez CZ-6A DEB en temps réel avec AllMySat

Download on the App Store